SCP
0 0 0 0 0 0 0 0 0 0 0 0 0 0 0 0 0 0 0 0 0 0
0 0 0 0 0 0 0 0 0 0 0 0 0 0 0 0 0 0 0 0 0 0
0 0 0 0 0 0 0 0 0 0 0 0 0 0 0 0 0 0 0 0 0 0
-0 0 0 0 0 0 0 0 0 0 0 0 0 0 0 0 0 0 0 0 0 0
-0 0 0 0 0 0 0 0 0 0 0 0 0 0 0 0 0 0 0 0 0 0
0 -0 0 0 0 0 0 0 0 0 0 0 0 0 0 0 0 0 0 0 0 0
0 -0 -0 0 0 0 0 0 0 0 0 0 0 0 0 0 0 0 0 0 0 0
0 -0 -0 0 0 0 0 0 0 0 0 0 0 0 0 0 0 0 0 0 0 0
-0 0 -0 -0 0 0 0 0 0 0 0 0 0 0 0 0 0 0 0 0 0 0
-0 0 0 -0 0 0 0 0 0 0 0 0 0 0 0 0 0 0 0 0 0 0
0 -0 0 -0 -0 0 0 0 0 0 0 0 0 0 0 0 0 0 0 0 0 0
0 -0 0 -0 0 0 0 0 0 0 0 0 0 0 0 0 0 0 0 0 0 0
0 -0 0 0 -0 0 0 0 0 0 0 0 0 0 0 0 0 0 0 0 0 0
0 0 0 0 0 0 0 0 0 0 0 0 0 0 0 0 0 0 0 0 0 0
Wind_Speed_500mb
80 92 94 89 81 83 91 100 92 88 80 74 67 63 58 53 49 42 39 37 33 27
64 80 85 88 83 84 77 86 93 86 84 75 66 61 58 54 49 44 37 35 34 32
53 67 75 80 85 85 75 78 88 88 82 76 67 61 57 55 46 41 40 34 30 29
45 54 62 73 84 79 76 76 86 87 82 75 71 62 57 53 48 43 38 36 35 32
40 46 55 64 74 78 75 75 81 86 80 75 71 65 59 54 44 43 44 39 35 32
41 42 47 54 65 73 75 75 78 83 79 77 71 69 61 55 47 43 39 37 34 32
44 41 42 49 59 70 74 76 78 79 82 76 72 67 62 54 48 42 38 35 35 32
47 44 41 47 56 65 73 76 77 78 79 76 71 68 64 58 52 43 38 36 33 32
59 44 47 47 51 62 69 75 76 76 76 74 73 66 63 59 53 44 38 35 31 29
55 48 51 50 53 61 67 73 74 73 72 73 71 65 64 57 45 39 35 30 27 26
62 53 49 48 55 57 64 74 73 73 70 69 64 66 58 52 48 36 31 28 28 30
73 62 52 50 59 61 64 72 70 70 69 70 67 60 53 51 49 38 30 28 28 28
75 65 62 55 60 64 65 72 71 69 69 66 58 57 53 49 39 29 26 25 24 30
80 66 64 60 64 64 66 72 73 71 70 63 57 54 54 47 38 28 25 22 20 19
Wind_Direction_500mb
245 237 231 230 230 220 221 236 231 227 224 224 225 225 226 226 226 226 226 224 224 227
252 241 237 233 233 222 217 226 233 228 224 221 221 222 222 222 225 224 222 227 230 232
261 247 239 237 230 222 217 216 230 226 222 218 218 220 218 220 221 222 219 220 225 233
272 253 243 237 229 225 218 213 219 224 217 215 216 216 214 217 216 214 218 222 226 233
283 260 249 238 230 224 219 213 212 219 214 214 213 214 212 212 210 211 214 221 229 240
295 270 253 240 231 224 218 212 206 211 209 210 212 213 211 211 207 211 215 221 226 238
308 283 257 243 232 224 218 211 205 205 209 211 212 212 208 204 206 211 216 220 229 239
308 293 265 243 233 225 218 211 205 200 206 208 210 208 204 203 206 207 215 224 232 251
304 300 272 247 232 224 218 211 204 199 199 200 202 205 204 208 210 211 213 223 235 247
304 290 273 248 229 223 217 209 204 199 195 197 203 200 204 208 212 210 216 225 239 248
299 286 273 257 235 220 217 207 204 197 194 193 194 202 206 204 209 209 216 226 236 247
300 292 278 255 238 218 215 206 203 196 192 191 193 204 201 202 208 211 220 230 241 249
297 284 275 249 233 219 209 204 198 193 190 191 192 202 199 202 201 202 215 232 245 264
295 283 262 238 222 212 204 201 195 191 186 186 189 197 198 202 197 198 213 228 242 257
Wind_Speed_850mb
80 92 94 89 81 83 91 100 92 88 80 74 67 63 58 53 49 42 39 37 33 27
64 80 85 88 83 84 77 86 93 86 84 75 66 61 58 54 49 44 37 35 34 32
53 67 75 80 85 85 75 78 88 88 82 76 67 61 57 55 46 41 40 34 30 29
45 54 62 73 84 79 76 76 86 87 82 75 71 62 57 53 48 43 38 36 35 32
40 46 55 64 74 78 75 75 81 86 80 75 71 65 59 54 44 43 44 39 35 32
41 42 47 54 65 73 75 75 78 83 79 77 71 69 61 55 47 43 39 37 34 32
44 41 42 49 59 70 74 76 78 79 82 76 72 67 62 54 48 42 38 35 35 32
47 44 41 47 56 65 73 76 77 78 79 76 71 68 64 58 52 43 38 36 33 32
59 44 47 47 51 62 69 75 76 76 76 74 73 66 63 59 53 44 38 35 31 29
55 48 51 50 53 61 67 73 74 73 72 73 71 65 64 57 45 39 35 30 27 26
62 53 49 48 55 57 64 74 73 73 70 69 64 66 58 52 48 36 31 28 28 30
73 62 52 50 59 61 64 72 70 70 69 70 67 60 53 51 49 38 30 28 28 28
75 65 62 55 60 64 65 72 71 69 69 66 58 57 53 49 39 29 26 25 24 30
80 66 64 60 64 64 66 72 73 71 70 63 57 54 54 47 38 28 25 22 20 19
Wind_Direction_850mb
245 237 231 230 230 220 221 236 231 227 224 224 225 225 226 226 226 226 226 224 224 227
252 241 237 233 233 222 217 226 233 228 224 221 221 222 222 222 225 224 222 227 230 232
261 247 239 237 230 222 217 216 230 226 222 218 218 220 218 220 221 222 219 220 225 233
272 253 243 237 229 225 218 213 219 224 217 215 216 216 214 217 216 214 218 222 226 233
283 260 249 238 230 224 219 213 212 219 214 214 213 214 212 212 210 211 214 221 229 240
295 270 253 240 231 224 218 212 206 211 209 210 212 213 211 211 207 211 215 221 226 238
308 283 257 243 232 224 218 211 205 205 209 211 212 212 208 204 206 211 216 220 229 239
308 293 265 243 233 225 218 211 205 200 206 208 210 208 204 203 206 207 215 224 232 251
304 300 272 247 232 224 218 211 204 199 199 200 202 205 204 208 210 211 213 223 235 247
304 290 273 248 229 223 217 209 204 199 195 197 203 200 204 208 212 210 216 225 239 248
299 286 273 257 235 220 217 207 204 197 194 193 194 202 206 204 209 209 216 226 236 247
300 292 278 255 238 218 215 206 203 196 192 191 193 204 201 202 208 211 220 230 241 249
297 284 275 249 233 219 209 204 198 193 190 191 192 202 199 202 201 202 215 232 245 264
295 283 262 238 222 212 204 201 195 191 186 186 189 197 198 202 197 198 213 228 242 257